Flag for Argentina Weather past 2 weeks in Resistencia, Chaco, Argentina

Now
95 °F

Passing clouds.


Feels Like: 105 °F
Forecast: 73 / 90 °F
Wind: 18 mph from Northeast

Location: Resistencia Aero.

Current Time: Dec 20, 2014 at 1:51:27 PM

Latest Report: Dec 20, 2014 at 12:00 PM


Visibility: N/A

Pressure: 29.50 "Hg

Humidity: 50%

Dew point: 73 °F

Location of ResistenciaLocation

Historic Weather in Resistencia — Graph

°F

Resistencia temperature yesterday

Maximum temperature yesterday: 91 °F (at 3:00 PM)
Minimum temperature yesterday: 68 °F (at 5:00 AM)
Average temperature yesterday: 81 °F

Past Weeks' High & Low Weather Summary

 TemperatureHumidityPressure
High99 °F (Dec 7, 4:00 PM)100% (Dec 9, 12:00 AM)29.92 "Hg (Dec 9, 12:00 AM)
Low66 °F (Dec 10, 8:00 AM)38% (Dec 5, 3:00 PM)29.50 "Hg (Dec 20, 12:00 PM)
Average81 °F74%29.78 "Hg
* Reported Dec 5 12:00 Noon — Dec 20 12:00 Noon, Resistencia, Weather by CustomWeather, © 2014

Note: Actual official high and low records may vary slightly from our data, if they occured in-between our weather recording intervals... More about our weather records

Advertising

Resistencia weather history for previous 24 hours

 ConditionsComfort  
Time TempWeatherWind HumidityBarometerVisibility
12:00 PM
Dec 20
95 °FPassing clouds.18 mph50%29.50 "HgN/A
11:00 AM90 °FPassing clouds.17 mph63%29.62 "HgN/A
10:00 AM90 °FSunny.13 mph67%29.53 "Hg10 mi
9:00 AM86 °FSunny.13 mph66%29.56 "Hg10 mi
8:00 AM82 °FSunny.10 mph79%29.56 "Hg10 mi
7:00 AM77 °FPassing clouds.7 mph94%29.56 "HgN/A
6:00 AM75 °FSunny.3 mph94%29.53 "Hg10 mi
5:00 AM77 °FSunny.7 mph83%29.56 "Hg10 mi
4:00 AM77 °FClear.8 mph83%29.56 "Hg10 mi
3:00 AM77 °FClear.5 mph83%29.56 "Hg10 mi
2:00 AM77 °FClear.6 mph83%29.59 "Hg10 mi
1:00 AM79 °FClear.5 mph79%29.62 "Hg10 mi
12:00 AM79 °FClear.5 mph79%29.62 "Hg10 mi
11:00 PM
Dec 19
79 °FClear.6 mph79%29.62 "Hg10 mi
10:00 PM81 °FClear.5 mph74%29.59 "Hg5 mi
9:00 PM82 °FClear.5 mph74%29.59 "Hg5 mi
8:00 PM84 °FPassing clouds.5 mph62%29.56 "HgN/A
7:00 PM88 °FPassing clouds.5 mph55%29.56 "HgN/A
6:00 PM90 °FPassing clouds.5 mph52%29.59 "HgN/A
5:00 PM90 °FPassing clouds.5 mph55%29.62 "HgN/A
4:00 PM91 °FPassing clouds.3 mph49%29.62 "HgN/A
3:00 PM91 °FPassing clouds.5 mph52%29.68 "HgN/A
2:00 PM90 °FPassing clouds.5 mph55%29.68 "HgN/A
1:00 PM88 °FPassing clouds.3 mph55%29.74 "HgN/A
Weather by CustomWeather, © 2014

See weather overviewHow to use our weather pages